Bennington, VT

10:58 PM EDT on July 26, 2017 (GMT -0400)
Morse State

Weather History for KDDH - December, 2014

Change the Weather History Date:

Monday, December 22, 2014

  Actual Average Record
Temperature  
Mean Temperature 33 °F 25 °F  
Max Temperature 39 °F 34 °F 66 °F (2013)
Min Temperature 27 °F 17 °F 1 °F (2008)
Degree Days  
Heating Degree Days 32 40  
Month to date heating degree days 760 788  
Since 1 July heating degree days 2253 2401  
Cooling Degree Days 0 0  
Month to date cooling degree days 0 0  
Year to date cooling degree days 308 313  
Moisture  
Dew Point 28 °F    
Average Humidity 81    
Maximum Humidity 92    
Minimum Humidity 70    
Precipitation  
Precipitation T in 0.09 in 0.49 in (1998)
Month to date precipitation 2.44 2.03  
Year to date precipitation 35.49 39.94  
Sea Level Pressure  
Sea Level Pressure 30.30 in    
Wind  
Wind Speed 6 mph (SE)    
Max Wind Speed 16 mph    
Max Gust Speed 21 mph    
Visibility 7 miles    
Events Snow    
T = Trace of Precipitation, MM = Missing Value Source: NWS Daily Summary

Daily Weather History Graph

Daily Weather History Graph

Search for Another Location

Airport or City:

Trip Planner

Search our weather history database for the weather conditions in past years. The results will help you decide how hot, cold, wet, or windy it might be!

Date:

Astronomy

Dec. 22, 2014 Rise Set
Actual Time 7:21 AM EST 4:22 PM EST
Civil Twilight 6:48 AM EST 4:54 PM EST
Nautical Twilight 6:12 AM EST 5:30 PM EST
Astronomical Twilight 5:38 AM EST 6:04 PM EST
Moon 7:29 AM EST (12/22) 5:29 PM EST (12/22)
Length of Visible Light 10h 05m
Length of Day
9h 01m
New Moon, 1% of the Moon is Illuminated
Dec 22
New Moon
Dec 28
First Quarter
Jan 4
Full
Jan 13
Last Quarter
Jan 20
New

Hourly Weather History & Observations

Time (EST) Temp. Windchill Dew Point Humidity Pressure Visibility Wind Dir Wind Speed Gust Speed Precip Events Conditions
12:12 AM 28.0 °F - 25.0 °F 88% 30.32 in 5.0 mi Calm Calm - N/A   Overcast
12:54 AM 28.0 °F - 25.0 °F 88% 30.36 in 5.0 mi Calm Calm - N/A   Overcast
1:54 AM 28.0 °F - 25.0 °F 88% 30.36 in 4.0 mi Calm Calm - N/A   Overcast
2:54 AM 28.0 °F - 25.0 °F 88% 30.35 in 4.0 mi Calm Calm - N/A   Overcast
3:54 AM 28.0 °F - 26.1 °F 92% 30.35 in 4.0 mi Calm Calm - N/A   Overcast
4:23 AM 28.0 °F - 26.1 °F 92% 30.32 in 4.0 mi Calm Calm - N/A   Overcast
4:54 AM 28.0 °F - 25.0 °F 88% 30.35 in 4.0 mi Calm Calm - N/A   Overcast
5:54 AM 28.0 °F - 26.1 °F 92% 30.35 in 3.0 mi Calm Calm - N/A   Overcast
6:54 AM 28.0 °F - 25.0 °F 88% 30.35 in 3.0 mi Calm Calm - N/A   Overcast
7:41 AM 28.0 °F - 26.1 °F 92% 30.32 in 1.8 mi Calm Calm - 0.00 in Snow Light Snow
7:54 AM 28.0 °F - 26.1 °F 92% 30.35 in 2.5 mi Calm Calm - 0.00 in   Overcast
8:06 AM 28.9 °F - 26.1 °F 89% 30.32 in 3.0 mi Calm Calm - N/A   Overcast
8:54 AM 30.0 °F - 27.0 °F 88% 30.35 in 3.0 mi Calm Calm - N/A   Overcast
9:54 AM 33.1 °F 30.0 °F 28.0 °F 82% 30.35 in 5.0 mi North 3.5 mph - N/A   Haze
10:54 AM 37.0 °F 29.3 °F 28.9 °F 73% 30.33 in 10.0 mi SE 11.5 mph - N/A   Overcast
11:54 AM 37.9 °F 30.0 °F 28.9 °F 70% 30.31 in 10.0 mi SE 12.7 mph - N/A   Overcast
12:54 PM 37.9 °F 32.7 °F 30.0 °F 73% 30.29 in 10.0 mi SSE 6.9 mph - N/A   Overcast
1:54 PM 39.0 °F 31.4 °F 30.0 °F 70% 30.26 in 10.0 mi SE 12.7 mph - N/A   Overcast
2:54 PM 39.0 °F 31.8 °F 30.0 °F 70% 30.26 in 10.0 mi SE 11.5 mph - N/A   Overcast
3:54 PM 37.9 °F 32.1 °F 30.0 °F 73% 30.28 in 10.0 mi ESE 8.1 mph - N/A   Overcast
4:54 PM 37.9 °F 30.0 °F 30.0 °F 73% 30.29 in 10.0 mi SE 12.7 mph - N/A   Overcast
5:54 PM 37.9 °F 28.9 °F 30.9 °F 76% 30.28 in 10.0 mi SE 16.1 mph - N/A   Overcast
6:43 PM 37.0 °F 31.0 °F 30.9 °F 79% 30.25 in 10.0 mi ESE 8.1 mph - N/A   Overcast
6:54 PM 37.0 °F 32.4 °F 30.9 °F 79% 30.28 in 10.0 mi ESE 5.8 mph - N/A   Overcast
7:06 PM 37.9 °F 32.1 °F 30.9 °F 76% 30.25 in 10.0 mi ESE 8.1 mph - N/A   Overcast
7:54 PM 37.0 °F 30.4 °F 30.9 °F 79% 30.27 in 10.0 mi ESE 9.2 mph - N/A   Overcast
8:54 PM 37.9 °F 30.9 °F 30.9 °F 76% 30.26 in 10.0 mi ESE 10.4 mph - N/A   Overcast
9:54 PM 37.9 °F 31.5 °F 32.0 °F 79% 30.25 in 10.0 mi SSE 9.2 mph - N/A   Overcast
10:54 PM 37.9 °F 30.9 °F 32.0 °F 79% 30.24 in 10.0 mi ESE 10.4 mph - N/A   Overcast
11:21 PM 37.9 °F 30.0 °F 32.0 °F 79% 30.20 in 10.0 mi ESE 12.7 mph 19.6 mph N/A   Overcast
11:54 PM 39.0 °F 31.4 °F 32.0 °F 76% 30.22 in 10.0 mi ESE 12.7 mph - N/A   Overcast